This is the latest recevied weather packets stored in our database for station/object KI4NG. If no packets are shown the sender has not sent any weather packets the latest 10 day(s).
| Time | Temp. | Humidity | Pressure | Rain* | Wind** | Luminosity | Snow |
|---|---|---|---|---|---|---|---|
| 1778008046 | 20.56° C | 60% | 1013.2 hPa | 0 mm | - | 422 W/m² | - |
| 1778007746 | 21.11° C | 61% | 1013.3 hPa | 0 mm | - | 367 W/m² | - |
| 1778007443 | 21.11° C | 61% | 1013.5 hPa | 0 mm | - | 390 W/m² | - |
| 1778007139 | 20.56° C | 61% | 1013.7 hPa | 0 mm | - | 404 W/m² | - |
| 1778006835 | 20.56° C | 60% | 1013.6 hPa | 0 mm | - | 255 W/m² | - |
| 1778006533 | 21.11° C | 60% | 1013.7 hPa | 0 mm | - | 223 W/m² | - |
| 1778006229 | 21.11° C | 60% | 1013.6 hPa | 0 mm | - | 310 W/m² | - |
| 1778005927 | 21.11° C | 59% | 1013.6 hPa | 0 mm | - | 421 W/m² | - |
| 1778005623 | 21.11° C | 60% | 1013.6 hPa | 0 mm | - | 372 W/m² | - |
| 1778005320 | 21.11° C | 58% | 1013.6 hPa | 0 mm | - | 361 W/m² | - |
| 1778005016 | 21.11° C | 55% | 1013.6 hPa | 0 mm | - | 393 W/m² | - |
| 1778004714 | 21.11° C | 56% | 1013.6 hPa | 0 mm | - | 567 W/m² | - |
| 1778004410 | 20.56° C | 56% | 1013.9 hPa | 0 mm | - | 490 W/m² | - |
| 1778004108 | 20.56° C | 58% | 1013.6 hPa | 0 mm | - | 400 W/m² | - |
| 1778003803 | 21.11° C | 56% | 1013.8 hPa | 0 mm | - | 404 W/m² | - |
| 1778003500 | 21.11° C | 56% | 1014.1 hPa | 0 mm | - | 594 W/m² | - |
| 1778003197 | 20.56° C | 59% | 1014.1 hPa | 0 mm | - | 533 W/m² | - |
| 1778002893 | 20.56° C | 58% | 1014.1 hPa | 0 mm | - | 483 W/m² | - |
| 1778002590 | 20.56° C | 59% | 1014.3 hPa | 0 mm | - | 442 W/m² | - |
| 1778002287 | 20.56° C | 62% | 1014.5 hPa | 0 mm | - | 436 W/m² | - |
| 1778001984 | 20.56° C | 63% | 1014.5 hPa | 0 mm | - | 505 W/m² | - |
| 1778001681 | 20.56° C | 63% | 1014.6 hPa | 0 mm | - | 552 W/m² | - |
| 1778001375 | 20.56° C | 63% | 1014.8 hPa | 0 mm | - | 484 W/m² | - |
| 1778001073 | 20° C | 67% | 1014.7 hPa | 0 mm | - | 484 W/m² | - |
| 1778000770 | 20° C | 66% | 1014.8 hPa | 0 mm | - | 451 W/m² | - |
* Rain latest hour (hover to see other rain measurements)
** Current wind speed in m/s (hover to see current wind gust speed)